"startDT [UTC]","vpos","CH4 [ppm]","stdev(CH4) [ppm]","CO2 [ppm]","stdev(CO2) [ppm]","H2O_reported [%]","stdev(H2O_reported)","CavityPressure [torr]","CavityTemp [C]","OutletValve","CH4_dry [ppm]","CO2_dry [ppm]","DasTemp [C]","EtalonTemp [C]","WarmBoxTemp [C]","MPVPosition","T_ECpre [C]","T_EC1 [C]","T_EC2 [C]","p_inlet [hPa]","p_in [hPa]","p_out [hPa]","T_inlet [C]","RH_inlet [%]","dwpt_inlet [C]","T_vent [C]","RH_vent [%]","dwpt_vent [C]","flow_vent [l min-1]","flow_inlet [l min-1]","dwpt_sample [C]","T_room [C]"
2015-08-29 00:00:00,3.0,1.87602,0.01212,396.206,3.510,0.2667,0.4500,139.965,45.000,30839.46706,1.88310,397.506,35.872,45.067,45.000,0.00,0.10,-272.74,-272.80,-15,452,-938,26.1,32.8,8.4,25.9,33.7,8.6,5.73,1.96,5.7,29.6
2015-08-29 00:01:00,3.0,1.87520,0.00047,396.835,0.048,0.0434,0.0031,139.998,45.000,30815.10038,1.87599,397.043,35.876,45.067,45.000,0.00,0.10,-272.73,-272.80,-16,451,-938,26.1,32.7,8.4,25.9,33.7,8.7,5.73,2.02,5.7,29.7
2015-08-29 00:02:00,3.0,1.87538,0.00035,397.097,0.110,0.0372,0.0023,139.998,45.000,30809.16883,1.87605,397.269,35.875,45.067,45.000,0.00,0.10,-272.73,-272.80,-16,451,-938,26.1,32.9,8.5,25.9,33.9,8.7,5.73,1.76,5.7,29.7
2015-08-29 00:03:00,3.0,1.87513,0.00044,397.321,0.048,0.0298,0.0027,140.000,45.000,30805.30907,1.87568,397.461,35.884,45.067,45.000,0.00,0.10,-272.74,-272.80,-15,451,-938,26.1,32.3,8.2,25.9,33.5,8.6,5.73,1.76,5.7,29.7
2015-08-29 00:04:00,3.0,1.87524,0.00037,397.415,0.043,0.0228,0.0023,140.000,45.000,30800.60951,1.87565,397.524,35.877,45.067,45.000,0.00,0.10,-272.74,-272.80,-15,451,-938,26.1,32.4,8.2,25.9,33.3,8.5,5.73,2.03,5.7,29.8
2015-08-29 00:05:00,3.0,1.87523,0.00024,397.438,0.025,0.0174,0.0021,139.999,45.000,30797.35593,1.87556,397.522,35.875,45.067,45.000,0.00,0.10,-272.73,-272.79,-15,451,-938,26.1,32.8,8.5,25.9,33.8,8.7,5.73,1.93,5.7,29.8
2015-08-29 00:06:00,3.0,1.87539,0.00042,397.472,0.031,0.0140,0.0020,139.999,45.000,30793.86799,1.87563,397.539,35.875,45.067,45.000,0.00,0.10,-272.73,-272.79,-16,451,-938,26.1,32.6,8.4,25.9,33.7,8.7,5.73,1.70,5.7,29.7
2015-08-29 00:07:00,3.0,1.87578,0.00032,397.527,0.025,0.0121,0.0020,140.001,45.000,30790.74579,1.87601,397.585,35.879,45.068,45.000,0.00,0.10,-272.73,-272.80,-15,452,-938,26.1,32.7,8.4,25.9,33.6,8.7,5.73,1.88,5.7,29.8
2015-08-29 00:08:00,3.0,1.87537,0.00037,397.534,0.041,0.0089,0.0019,139.999,45.000,30789.47470,1.87553,397.576,35.898,45.068,45.000,0.00,0.10,-272.73,-272.79,-15,452,-938,26.1,32.8,8.5,25.9,33.8,8.8,5.73,2.05,5.7,29.8
2015-08-29 00:09:00,3.0,1.87565,0.00031,397.542,0.022,0.0082,0.0020,139.999,45.000,30787.79709,1.87578,397.581,35.883,45.068,45.000,0.00,0.10,-272.73,-272.80,-15,452,-938,26.1,32.3,8.3,25.9,33.4,8.6,5.73,1.80,5.7,29.9
2015-08-29 00:10:00,3.0,1.87552,0.00032,397.528,0.032,0.0076,0.0019,139.999,45.000,30788.51987,1.87567,397.564,35.879,45.068,45.000,0.00,0.10,-272.73,-272.80,-16,452,-938,26.1,32.3,8.3,25.9,33.3,8.5,5.73,1.73,5.7,29.8
2015-08-29 00:11:00,3.0,1.87591,0.00024,397.552,0.026,0.0067,0.0020,139.997,45.000,30786.29023,1.87603,397.584,35.904,45.068,45.000,0.00,0.10,-272.74,-272.80,-16,452,-938,26.1,32.5,8.4,25.9,33.4,8.6,5.73,2.02,5.8,29.9
2015-08-29 00:12:00,3.0,1.87559,0.00035,397.552,0.031,0.0058,0.0016,139.996,45.000,30786.94922,1.87571,397.581,35.930,45.068,45.000,0.00,0.10,-272.73,-272.79,-15,452,-938,26.1,32.5,8.4,25.9,33.6,8.7,5.73,1.95,5.8,29.9
2015-08-29 00:13:00,3.0,1.87564,0.00041,397.560,0.020,0.0050,0.0019,139.996,45.000,30787.63998,1.87574,397.583,35.934,45.067,45.000,0.00,0.10,-272.73,-272.80,-15,452,-938,26.2,32.0,8.1,26.0,33.2,8.5,5.73,1.71,5.8,29.9
2015-08-29 00:14:00,3.0,1.87571,0.00033,397.586,0.036,0.0050,0.0023,139.999,45.000,30787.14927,1.87580,397.609,35.938,45.067,45.000,0.00,0.10,-272.74,-272.79,-15,452,-938,26.2,32.2,8.3,26.0,33.2,8.6,5.73,1.87,5.8,29.9
2015-08-29 00:15:00,3.0,1.87597,0.00029,397.582,0.023,0.0037,0.0013,139.998,45.000,30785.21743,1.87603,397.600,35.938,45.067,45.000,0.00,0.10,-272.73,-272.79,-16,452,-938,26.2,32.4,8.4,26.0,33.4,8.6,5.73,2.05,5.8,29.9
2015-08-29 00:16:00,3.0,1.87598,0.00024,397.605,0.035,0.0040,0.0022,140.000,45.000,30784.91524,1.87607,397.625,35.939,45.067,45.000,0.00,0.10,-272.73,-272.80,-15,452,-938,26.2,32.5,8.4,26.0,33.6,8.8,5.73,1.82,5.8,29.8
2015-08-29 00:17:00,3.0,1.87585,0.00033,397.591,0.041,0.0027,0.0021,140.000,45.000,30786.79291,1.87590,397.604,35.966,45.067,45.000,0.00,0.10,-272.74,-272.80,-15,452,-938,26.2,32.0,8.2,26.0,33.2,8.6,5.73,1.73,5.8,29.7
2015-08-29 00:18:00,3.0,1.87597,0.00036,397.577,0.030,0.0041,0.0023,140.000,45.000,30787.03205,1.87603,397.596,35.981,45.067,45.000,0.00,0.10,-272.73,-272.79,-15,452,-938,26.2,32.0,8.2,26.1,33.2,8.6,5.73,2.01,5.8,29.8
2015-08-29 00:19:00,3.0,1.87603,0.00035,397.595,0.026,0.0021,0.0019,140.000,45.000,30786.80900,1.87607,397.605,35.970,45.067,45.000,0.00,0.10,-272.73,-272.79,-16,453,-938,26.2,31.7,8.1,26.1,32.9,8.5,5.73,1.97,5.8,29.8
2015-08-29 00:20:00,0.0,1.90874,0.01158,389.757,3.278,1.1449,0.4433,140.022,45.000,31139.81170,1.92938,395.335,35.976,45.067,45.000,0.00,0.10,-272.73,-272.80,-17,504,-938,26.2,32.1,8.3,26.1,33.1,8.6,5.73,1.82,5.8,29.9
2015-08-29 00:21:00,0.0,1.91151,0.00078,387.745,0.113,1.3937,0.0067,140.001,45.000,31172.00620,1.93898,394.546,35.986,45.067,45.000,0.00,0.10,-272.73,-272.80,-17,504,-938,26.2,32.5,8.5,26.1,33.6,8.8,5.73,1.80,5.8,29.9
2015-08-29 00:22:00,0.0,1.91004,0.00055,387.946,0.064,1.3872,0.0037,139.997,45.000,31180.92855,1.93737,394.717,35.997,45.067,45.000,0.00,0.10,-272.73,-272.80,-16,505,-937,26.3,32.2,8.3,26.1,33.4,8.7,5.73,1.96,5.8,29.9
2015-08-29 00:23:00,0.0,1.91028,0.00063,387.917,0.086,1.3976,0.0059,139.999,45.000,31186.37592,1.93775,394.743,35.992,45.067,45.000,0.00,0.10,-272.73,-272.79,-16,505,-938,26.3,32.4,8.4,26.1,33.5,8.7,5.73,2.04,5.8,29.9
2015-08-29 00:24:00,0.0,1.90917,0.00070,388.130,0.107,1.3924,0.0062,139.998,45.000,31191.45252,1.93659,394.931,35.998,45.067,45.000,0.00,0.10,-272.73,-272.80,-17,505,-938,26.3,32.1,8.3,26.1,33.4,8.7,5.73,1.92,5.8,29.9
2015-08-29 00:25:00,0.0,1.90890,0.00033,388.267,0.087,1.3861,0.0051,139.998,45.000,31195.61705,1.93613,395.041,35.999,45.068,45.000,0.00,0.10,-272.73,-272.79,-17,505,-938,26.3,31.9,8.2,26.1,33.1,8.6,5.73,1.77,5.9,29.9
2015-08-29 00:26:00,0.0,1.90842,0.00075,388.338,0.122,1.3846,0.0073,140.000,45.000,31200.93124,1.93569,395.102,36.000,45.067,45.000,0.00,0.10,-272.73,-272.79,-17,505,-938,26.3,31.8,8.2,26.1,33.0,8.6,5.73,1.81,5.9,29.9
2015-08-29 00:27:00,0.0,1.90826,0.00051,388.369,0.067,1.3876,0.0050,139.998,45.000,31204.08235,1.93547,395.152,36.000,45.067,45.000,0.00,0.10,-272.74,-272.80,-17,505,-938,26.3,32.0,8.2,26.1,33.0,8.6,5.73,1.99,5.9,30.0
2015-08-29 00:28:00,0.0,1.90813,0.00043,388.329,0.062,1.3937,0.0039,140.001,45.000,31208.49330,1.93555,395.144,36.000,45.067,45.000,0.00,0.10,-272.73,-272.79,-17,506,-937,26.3,32.0,8.3,26.1,33.1,8.6,5.73,2.04,5.9,30.1
2015-08-29 00:29:00,0.0,1.90874,0.00043,388.421,0.053,1.3897,0.0031,139.998,45.000,31210.00497,1.93601,395.216,36.000,45.067,45.000,0.00,0.10,-272.73,-272.79,-16,506,-937,26.3,31.9,8.2,26.1,33.1,8.6,5.73,1.89,5.9,30.1
2015-08-29 00:30:00,0.0,1.90919,0.00053,388.153,0.087,1.4088,0.0066,139.999,45.000,31213.50945,1.93692,395.042,36.000,45.067,45.000,0.00,0.10,-272.73,-272.80,-16,506,-937,26.3,32.4,8.5,26.1,33.3,8.7,5.73,1.76,5.9,30.1
2015-08-29 00:31:00,0.0,1.90821,0.00059,388.314,0.142,1.4008,0.0083,140.002,45.000,31216.63012,1.93576,395.161,36.001,45.067,45.000,0.00,0.10,-272.74,-272.79,-17,505,-938,26.3,32.2,8.4,26.1,33.3,8.7,5.73,1.84,5.9,30.0
2015-08-29 00:32:00,0.0,1.90853,0.00053,388.359,0.146,1.4033,0.0085,139.999,45.000,31216.08456,1.93613,395.220,36.002,45.067,45.000,0.00,0.10,-272.73,-272.79,-17,506,-937,26.3,32.1,8.4,26.1,33.2,8.7,5.73,2.01,5.9,30.0
2015-08-29 00:33:00,0.0,1.90874,0.00046,388.419,0.094,1.4016,0.0073,139.999,45.000,31217.41429,1.93629,395.274,36.004,45.067,45.000,0.00,0.10,-272.73,-272.80,-17,506,-937,26.3,32.2,8.4,26.1,33.1,8.6,5.73,2.02,5.9,30.0
2015-08-29 00:34:00,0.0,1.90875,0.00045,388.391,0.065,1.4045,0.0054,139.999,45.000,31218.10830,1.93638,395.262,36.000,45.067,45.000,0.00,0.10,-272.73,-272.81,-17,506,-938,26.3,32.2,8.4,26.1,33.2,8.6,5.73,1.83,5.9,30.0
2015-08-29 00:35:00,0.0,1.90841,0.00059,388.536,0.104,1.3976,0.0062,139.998,45.000,31219.55267,1.93587,395.371,36.001,45.067,45.000,0.00,0.10,-272.72,-272.80,-17,506,-938,26.3,32.0,8.3,26.1,33.1,8.6,5.73,1.76,5.9,30.0
2015-08-29 00:36:00,0.0,1.90901,0.00045,388.465,0.123,1.4017,0.0086,140.001,45.000,31222.37225,1.93656,395.325,36.003,45.067,45.000,0.00,0.10,-272.73,-272.79,-16,506,-938,26.3,32.2,8.4,26.1,33.0,8.6,5.73,1.90,5.9,30.0
2015-08-29 00:37:00,0.0,1.90909,0.00046,388.435,0.046,1.4093,0.0034,140.000,45.000,31220.46607,1.93685,395.329,36.006,45.067,45.000,0.00,0.10,-272.73,-272.80,-17,506,-937,26.3,32.2,8.4,26.1,33.3,8.7,5.73,2.05,5.9,30.1
2015-08-29 00:38:00,0.0,1.90922,0.00054,388.414,0.121,1.4112,0.0085,139.997,45.000,31221.99838,1.93693,395.321,36.034,45.067,45.000,0.00,0.10,-272.73,-272.80,-17,506,-938,26.3,32.4,8.5,26.1,33.3,8.7,5.73,1.96,6.0,30.1
2015-08-29 00:39:00,0.0,1.90874,0.00054,388.514,0.129,1.4095,0.0079,139.998,45.000,31222.79871,1.93651,395.409,36.059,45.067,45.000,0.00,0.10,-272.73,-272.80,-18,506,-938,26.3,32.1,8.4,26.1,33.3,8.7,5.73,1.78,6.0,30.1
2015-08-29 00:40:00,0.0,1.90821,0.00029,388.630,0.055,1.3974,0.0040,140.001,45.000,31225.45274,1.93570,395.466,36.063,45.067,45.000,0.00,0.10,-272.73,-272.79,-17,506,-938,26.4,31.9,8.3,26.1,33.0,8.6,5.73,1.79,6.0,30.1
2015-08-29 00:41:00,0.0,1.90858,0.00040,388.596,0.083,1.4038,0.0072,140.001,45.000,31224.09500,1.93615,395.468,36.063,45.067,45.000,0.00,0.10,-272.74,-272.80,-17,506,-938,26.4,32.1,8.4,26.2,33.1,8.6,5.73,1.98,6.0,30.0
2015-08-29 00:42:00,0.0,1.90923,0.00067,388.548,0.077,1.4072,0.0052,139.996,45.000,31224.29801,1.93692,395.435,36.063,45.067,45.000,0.00,0.10,-272.73,-272.79,-16,506,-938,26.4,32.2,8.4,26.2,33.1,8.7,5.73,2.04,6.0,30.0
2015-08-29 00:43:00,0.0,1.90885,0.00051,388.476,0.063,1.4170,0.0051,139.998,45.000,31225.43223,1.93674,395.412,36.063,45.067,45.000,0.00,0.10,-272.73,-272.79,-17,506,-938,26.4,32.4,8.5,26.2,33.3,8.7,5.73,1.87,6.0,30.1
2015-08-29 00:44:00,0.0,1.90821,0.00047,388.600,0.101,1.4115,0.0073,140.002,45.000,31227.01737,1.93596,395.509,36.067,45.067,45.000,0.00,0.10,-272.73,-272.80,-17,506,-938,26.3,32.2,8.4,26.2,33.3,8.7,5.73,1.75,6.0,30.1
2015-08-29 00:45:00,0.0,1.90814,0.00049,388.714,0.076,1.4042,0.0073,139.998,45.000,31226.84968,1.93574,395.587,36.101,45.067,45.000,0.00,0.10,-272.73,-272.79,-18,506,-938,26.4,32.0,8.3,26.2,33.1,8.6,5.73,1.87,6.0,30.1
2015-08-29 00:46:00,0.0,1.90836,0.00045,388.597,0.157,1.4148,0.0117,139.999,45.000,31228.27152,1.93616,395.527,36.125,45.067,45.000,0.00,0.10,-272.73,-272.79,-17,506,-938,26.4,32.4,8.5,26.2,33.2,8.7,5.73,2.04,6.0,30.0
2015-08-29 00:47:00,0.0,1.90865,0.00043,388.573,0.171,1.4194,0.0133,139.998,45.000,31227.81880,1.93661,395.521,36.132,45.067,45.000,0.00,0.10,-272.73,-272.80,-17,506,-938,26.4,32.3,8.5,26.2,33.5,8.8,5.73,1.98,6.0,30.1
2015-08-29 00:48:00,0.0,1.90888,0.00032,388.683,0.039,1.4086,0.0047,139.999,45.000,31229.64988,1.93655,395.580,36.151,45.067,45.000,0.00,0.10,-272.72,-272.80,-17,506,-938,26.4,32.2,8.4,26.2,33.1,8.7,5.73,1.78,6.0,30.1
2015-08-29 00:49:00,0.0,1.90914,0.00046,388.551,0.079,1.4223,0.0058,140.003,45.000,31229.85292,1.93713,395.512,36.142,45.067,45.000,0.00,0.10,-272.72,-272.79,-17,506,-938,26.4,32.4,8.5,26.2,33.4,8.8,5.73,1.79,6.0,30.0
2015-08-29 00:50:00,0.0,1.90886,0.00044,388.753,0.079,1.4085,0.0061,139.998,45.000,31228.35031,1.93657,395.652,36.153,45.067,45.000,0.00,0.10,-272.73,-272.79,-17,506,-938,26.4,32.1,8.4,26.2,33.2,8.7,5.73,1.98,6.0,30.0
2015-08-29 00:51:00,0.0,1.90876,0.00042,388.697,0.042,1.4137,0.0030,140.001,45.000,31230.76531,1.93659,395.619,36.172,45.067,45.000,0.00,0.10,-272.73,-272.80,-18,506,-938,26.4,32.2,8.5,26.2,33.2,8.7,5.73,2.04,6.0,30.1
2015-08-29 00:52:00,0.0,1.90907,0.00047,388.608,0.103,1.4218,0.0069,139.997,45.000,31229.87447,1.93701,395.574,36.175,45.067,45.000,0.00,0.10,-272.73,-272.79,-18,506,-938,26.4,32.5,8.6,26.2,33.3,8.8,5.73,1.87,6.1,30.1
2015-08-29 00:53:00,0.0,1.90875,0.00052,388.719,0.161,1.4175,0.0119,140.000,45.000,31230.64595,1.93666,395.658,36.176,45.067,45.000,0.00,0.10,-272.73,-272.80,-17,506,-937,26.4,32.2,8.5,26.2,33.4,8.8,5.73,1.75,6.0,30.0
2015-08-29 00:54:00,0.0,1.90849,0.00046,388.803,0.045,1.4088,0.0044,139.999,45.000,31231.02352,1.93621,395.701,36.181,45.067,45.000,0.00,0.10,-272.74,-272.80,-17,506,-938,26.4,32.0,8.4,26.2,33.1,8.7,5.73,1.89,6.1,30.1
2015-08-29 00:55:00,0.0,1.90845,0.00046,388.856,0.082,1.4063,0.0050,139.999,45.000,31231.05352,1.93611,395.746,36.187,45.067,45.000,0.00,0.10,-272.73,-272.79,-17,506,-938,26.4,32.0,8.4,26.2,33.0,8.6,5.73,2.05,6.1,30.1
2015-08-29 00:56:00,0.0,1.90839,0.00036,388.780,0.062,1.4112,0.0044,139.998,45.000,31231.79952,1.93615,395.689,36.188,45.067,45.000,0.00,0.10,-272.72,-272.79,-17,506,-938,26.4,32.1,8.4,26.2,33.1,8.7,5.73,1.95,6.1,30.2
2015-08-29 00:57:00,0.0,1.90848,0.00040,388.778,0.071,1.4115,0.0057,140.002,45.000,31233.86501,1.93622,395.691,36.183,45.067,45.000,0.00,0.10,-272.74,-272.79,-17,506,-938,26.4,32.1,8.4,26.2,33.1,8.7,5.73,1.77,6.1,30.1
2015-08-29 00:58:00,0.0,1.90838,0.00045,388.725,0.068,1.4200,0.0046,140.001,45.000,31234.47542,1.93637,395.679,36.188,45.067,45.000,0.00,0.10,-272.74,-272.79,-18,507,-938,26.4,32.2,8.5,26.2,33.3,8.8,5.73,1.81,6.1,30.2
2015-08-29 00:59:00,0.0,1.90816,0.00056,388.756,0.084,1.4193,0.0048,140.001,45.000,31233.76670,1.93605,395.709,36.181,45.067,45.000,0.00,0.10,-272.73,-272.79,-17,507,-938,26.4,32.3,8.5,26.2,33.3,8.8,5.73,2.01,6.1,30.2
2015-08-29 01:00:00,0.0,1.90783,0.00038,388.869,0.049,1.4133,0.0045,139.999,45.000,31233.59913,1.93562,395.794,36.186,45.067,45.000,0.00,0.10,-272.73,-272.80,-17,507,-938,26.4,32.1,8.4,26.2,33.1,8.7,5.73,2.02,6.1,30.1
2015-08-29 01:01:00,0.0,1.90799,0.00039,388.817,0.041,1.4162,0.0038,139.996,45.000,31234.18517,1.93585,395.754,36.188,45.067,45.000,0.00,0.10,-272.73,-272.80,-17,506,-938,26.4,32.2,8.5,26.2,33.2,8.7,5.73,1.82,6.1,30.2
2015-08-29 01:02:00,0.0,1.90820,0.00050,388.668,0.117,1.4294,0.0094,140.000,45.000,31236.68210,1.93632,395.672,36.188,45.067,45.000,0.00,0.10,-272.73,-272.80,-17,507,-938,26.5,32.6,8.7,26.2,33.4,8.9,5.73,1.75,6.1,30.1
2015-08-29 01:03:00,0.0,1.90834,0.00042,388.495,0.077,1.4466,0.0066,139.998,45.000,31236.66166,1.93680,395.585,36.216,45.067,45.000,0.00,0.10,-272.73,-272.79,-17,506,-938,26.5,32.9,8.8,26.2,33.9,9.1,5.73,1.94,6.1,30.0
2015-08-29 01:04:00,0.0,1.90804,0.00030,388.747,0.070,1.4361,0.0062,139.997,45.000,31236.04590,1.93632,395.782,36.230,45.067,45.000,0.00,0.10,-272.74,-272.80,-18,507,-938,26.5,32.6,8.7,26.2,33.7,9.0,5.73,2.05,6.1,30.1
2015-08-29 01:05:00,0.0,1.90767,0.00058,388.901,0.129,1.4238,0.0092,140.002,45.000,31238.09885,1.93573,395.879,36.237,45.067,45.000,0.00,0.10,-272.73,-272.80,-17,507,-938,26.5,32.2,8.5,26.2,33.4,8.9,5.73,1.90,6.2,30.1
2015-08-29 01:06:00,0.0,1.90724,0.00041,389.070,0.069,1.4107,0.0049,140.000,45.000,31240.32668,1.93495,395.984,36.250,45.067,45.000,0.00,0.10,-272.72,-272.80,-17,507,-938,26.5,32.0,8.4,26.3,33.0,8.7,5.73,1.74,6.2,30.2
2015-08-29 01:07:00,0.0,1.90761,0.00058,388.968,0.089,1.4225,0.0059,139.996,45.000,31235.77505,1.93560,395.940,36.251,45.067,45.000,0.00,0.10,-272.74,-272.79,-17,506,-938,26.5,32.2,8.5,26.2,33.3,8.8,5.73,1.87,6.2,30.2
2015-08-29 01:08:00,0.0,1.90719,0.00040,389.164,0.032,1.4116,0.0031,140.001,45.000,31221.36649,1.93492,396.083,36.263,45.067,45.000,0.00,0.10,-272.74,-272.80,-17,506,-938,26.5,32.0,8.4,26.2,33.1,8.7,5.73,2.06,6.2,30.2
2015-08-29 01:09:00,0.0,1.90740,0.00044,389.004,0.080,1.4238,0.0067,139.997,45.000,31223.27495,1.93541,395.986,36.307,45.067,45.000,0.00,0.10,-272.72,-272.79,-18,507,-938,26.5,32.3,8.6,26.2,33.2,8.8,5.73,1.94,6.2,30.2
2015-08-29 01:10:00,0.0,1.90676,0.00054,389.017,0.137,1.4273,0.0103,140.000,45.000,31226.58505,1.93487,396.012,36.308,45.067,45.000,0.00,0.10,-272.73,-272.79,-17,507,-938,26.5,32.3,8.5,26.3,33.5,8.9,5.73,1.74,6.3,30.2
2015-08-29 01:11:00,0.0,1.90668,0.00043,389.130,0.077,1.4167,0.0075,139.998,45.000,31227.12661,1.93450,396.077,36.313,45.067,45.000,0.00,0.10,-272.74,-272.80,-17,507,-938,26.5,32.1,8.5,26.3,33.1,8.7,5.73,1.85,6.3,30.2
2015-08-29 01:12:00,0.0,1.90655,0.00041,389.106,0.153,1.4198,0.0090,140.000,45.000,31229.36012,1.93446,396.065,36.312,45.067,45.000,0.00,0.10,-272.74,-272.79,-17,506,-938,26.5,32.1,8.4,26.3,33.3,8.8,5.73,2.05,6.3,30.3
2015-08-29 01:13:00,0.0,1.90642,0.00043,389.174,0.150,1.4141,0.0137,140.001,45.000,31230.91942,1.93420,396.111,36.316,45.067,45.000,0.00,0.10,-272.72,-272.79,-17,507,-938,26.5,32.1,8.5,26.3,33.0,8.7,5.73,1.95,6.3,30.3
2015-08-29 01:14:00,0.0,1.90644,0.00045,389.091,0.087,1.4258,0.0057,139.999,45.000,31229.43572,1.93447,396.082,36.329,45.067,45.000,0.00,0.10,-272.73,-272.80,-18,507,-938,26.5,32.2,8.5,26.3,33.3,8.9,5.73,1.74,6.3,30.3
2015-08-29 01:15:00,0.0,1.90626,0.00034,389.193,0.052,1.4158,0.0046,139.999,45.000,31231.55353,1.93410,396.133,36.332,45.067,45.000,0.00,0.10,-272.73,-272.80,-18,507,-938,26.5,32.0,8.5,26.3,33.1,8.8,5.73,1.84,6.3,30.2
2015-08-29 01:16:00,0.0,1.90623,0.00042,389.147,0.170,1.4190,0.0123,140.000,45.000,31235.07200,1.93410,396.109,36.319,45.067,45.000,0.00,0.10,-272.73,-272.78,-17,507,-938,26.5,32.2,8.6,26.3,33.1,8.8,5.73,2.05,6.3,30.3
2015-08-29 01:17:00,0.0,1.90597,0.00035,389.152,0.075,1.4230,0.0056,139.998,45.000,31236.75863,1.93394,396.129,36.317,45.068,45.000,0.00,0.10,-272.73,-272.80,-17,507,-938,26.5,32.1,8.5,26.3,33.2,8.9,5.73,1.96,6.4,30.2
2015-08-29 01:18:00,0.0,1.90585,0.00044,389.250,0.051,1.4161,0.0067,140.001,45.000,31236.88331,1.93367,396.195,36.331,45.068,45.000,0.00,0.10,-272.73,-272.80,-17,507,-938,26.5,32.0,8.5,26.3,33.0,8.8,5.73,1.75,6.4,30.3
2015-08-29 01:19:00,0.0,1.90603,0.00051,389.266,0.073,1.4158,0.0059,139.999,45.000,31234.35227,1.93384,396.210,36.359,45.068,45.000,0.00,0.10,-272.73,-272.79,-18,507,-938,26.5,32.0,8.5,26.3,33.0,8.8,5.73,1.83,6.4,30.2
2015-08-29 01:20:00,0.0,1.90623,0.00023,389.074,0.083,1.4356,0.0057,139.998,45.000,31232.88230,1.93448,396.117,36.375,45.067,45.000,0.00,0.10,-272.73,-272.79,-18,507,-938,26.5,32.4,8.7,26.3,33.4,8.9,5.73,2.04,6.4,30.3
2015-08-29 01:21:00,0.0,1.90621,0.00040,389.175,0.087,1.4208,0.0082,139.998,45.000,31234.47916,1.93411,396.144,36.375,45.067,45.000,0.00,0.10,-272.73,-272.80,-17,507,-938,26.5,32.0,8.5,26.3,33.2,8.8,5.73,1.97,6.4,30.2
2015-08-29 01:22:00,0.0,1.90653,0.00039,389.174,0.070,1.4213,0.0052,140.000,45.000,31234.42924,1.93447,396.143,36.369,45.067,45.000,0.00,0.10,-272.72,-272.79,-17,507,-938,26.5,32.1,8.5,26.3,33.1,8.8,5.73,1.75,6.4,30.2
2015-08-29 01:23:00,0.0,1.90665,0.00045,389.086,0.053,1.4322,0.0047,139.995,45.000,31232.74979,1.93483,396.110,36.372,45.067,45.000,0.00,0.10,-272.73,-272.78,-17,507,-938,26.5,32.3,8.6,26.3,33.3,8.9,5.73,1.82,6.5,30.1
2015-08-29 01:24:00,0.0,1.90617,0.00036,389.405,0.088,1.4036,0.0082,140.000,45.000,31234.59150,1.93371,396.288,36.365,45.067,45.000,0.00,0.10,-272.74,-272.79,-18,507,-938,26.5,31.6,8.3,26.3,32.8,8.7,5.73,2.04,6.5,30.2
2015-08-29 01:25:00,0.0,1.90616,0.00041,389.445,0.067,1.4022,0.0056,139.998,45.000,31234.40811,1.93371,396.320,36.367,45.067,45.000,0.00,0.10,-272.73,-272.80,-18,507,-938,26.5,31.6,8.3,26.3,32.6,8.6,5.73,1.97,6.5,30.2
2015-08-29 01:26:00,0.0,1.90667,0.00052,389.205,0.135,1.4208,0.0081,139.999,45.000,31236.93357,1.93456,396.177,36.367,45.067,45.000,0.00,0.10,-272.73,-272.79,-18,507,-938,26.6,32.1,8.6,26.3,32.9,8.7,5.73,1.75,6.5,30.2
2015-08-29 01:27:00,0.0,1.90655,0.00044,389.213,0.100,1.4213,0.0089,139.999,45.000,31238.50113,1.93451,396.180,36.365,45.067,45.000,0.00,0.10,-272.73,-272.79,-17,507,-938,26.6,32.0,8.5,26.3,33.0,8.8,5.73,1.82,6.5,30.1
2015-08-29 01:28:00,0.0,1.90654,0.00031,389.292,0.104,1.4150,0.0090,140.000,45.000,31238.94264,1.93434,396.232,36.365,45.067,45.000,0.00,0.10,-272.73,-272.80,-17,507,-938,26.6,31.9,8.4,26.3,33.0,8.7,5.73,2.04,6.5,30.2
2015-08-29 01:29:00,0.0,1.90677,0.00040,389.292,0.054,1.4187,0.0032,140.000,45.000,31237.32635,1.93466,396.250,36.369,45.067,45.000,0.00,0.10,-272.72,-272.79,-17,507,-938,26.6,31.9,8.5,26.4,33.0,8.8,5.73,1.97,6.5,30.3
2015-08-29 01:30:00,0.0,1.90675,0.00039,389.302,0.063,1.4200,0.0039,139.997,45.000,31240.10435,1.93468,396.268,36.372,45.067,45.000,0.00,0.10,-272.72,-272.79,-18,507,-938,26.6,32.0,8.5,26.4,33.0,8.8,5.73,1.74,6.5,30.2
2015-08-29 01:31:00,0.0,1.90682,0.00047,389.382,0.063,1.4167,0.0050,139.998,45.000,31241.79451,1.93463,396.332,36.375,45.067,45.000,0.00,0.10,-272.74,-272.80,-18,507,-938,26.6,31.9,8.5,26.4,32.9,8.8,5.73,1.83,6.5,30.2
2015-08-29 01:32:00,0.0,1.90694,0.00041,389.404,0.056,1.4197,0.0049,139.999,45.000,31240.47169,1.93485,396.369,36.373,45.067,45.000,0.00,0.10,-272.73,-272.80,-17,507,-938,26.6,31.9,8.5,26.4,33.0,8.8,5.73,2.05,6.5,30.2
2015-08-29 01:33:00,0.0,1.90718,0.00041,389.405,0.092,1.4147,0.0072,140.000,45.000,31240.69726,1.93497,396.347,36.375,45.067,45.000,0.00,0.10,-272.72,-272.79,-17,507,-938,26.6,31.9,8.5,26.4,32.8,8.7,5.73,1.96,6.5,30.2
2015-08-29 01:34:00,0.0,1.90748,0.00045,389.322,0.068,1.4244,0.0051,139.996,45.000,31239.44419,1.93551,396.310,36.375,45.067,45.000,0.00,0.10,-272.73,-272.79,-17,507,-938,26.6,32.1,8.6,26.4,33.1,8.8,5.73,1.74,6.5,30.3
2015-08-29 01:35:00,0.0,1.90757,0.00045,389.534,0.137,1.4121,0.0100,139.997,45.000,31238.85974,1.93527,396.462,36.378,45.067,45.000,0.00,0.10,-272.74,-272.79,-18,507,-938,26.6,31.6,8.4,26.4,32.8,8.7,5.73,1.84,6.5,30.3
2015-08-29 01:36:00,0.0,1.90750,0.00041,389.474,0.081,1.4164,0.0074,140.001,45.000,31238.08580,1.93539,396.425,36.390,45.067,45.000,0.00,0.10,-272.73,-272.79,-18,507,-938,26.6,31.9,8.5,26.4,32.8,8.7,5.73,2.05,6.6,30.3
2015-08-29 01:37:00,0.0,1.90708,0.00042,389.503,0.092,1.4177,0.0074,140.001,45.000,31241.14455,1.93497,396.458,36.396,45.067,45.000,0.00,0.10,-272.73,-272.79,-17,507,-938,26.6,31.8,8.4,26.4,32.9,8.8,5.73,1.95,6.5,30.2
2015-08-29 01:38:00,0.0,1.90736,0.00038,389.586,0.069,1.4134,0.0061,139.998,45.000,31239.02392,1.93512,396.521,36.397,45.067,45.000,0.00,0.10,-272.73,-272.80,-17,507,-938,26.6,31.8,8.4,26.4,32.7,8.7,5.73,1.73,6.6,30.3
2015-08-29 01:39:00,0.0,1.90760,0.00044,389.610,0.051,1.4179,0.0054,140.002,45.000,31239.85472,1.93550,396.571,36.391,45.067,45.000,0.00,0.10,-272.73,-272.79,-17,507,-938,26.6,31.8,8.5,26.4,32.8,8.7,5.73,1.86,6.6,30.3
2015-08-29 01:40:00,0.0,1.90756,0.00046,389.586,0.114,1.4146,0.0091,140.002,45.000,31239.56146,1.93536,396.530,36.399,45.067,45.000,0.00,0.10,-272.72,-272.79,-18,507,-938,26.6,31.8,8.4,26.4,32.7,8.7,5.73,2.06,6.6,30.3
2015-08-29 01:41:00,0.0,1.90730,0.00045,389.799,0.085,1.4021,0.0074,139.999,45.000,31239.78371,1.93486,396.680,36.433,45.067,45.000,0.00,0.10,-272.73,-272.79,-18,507,-938,26.6,31.4,8.3,26.4,32.6,8.6,5.73,1.92,6.6,30.4
2015-08-29 01:42:00,0.0,1.90774,0.00040,389.833,0.068,1.3996,0.0078,140.000,45.000,31239.87903,1.93522,396.704,36.423,45.067,45.000,0.00,0.10,-272.73,-272.80,-17,507,-938,26.6,31.4,8.3,26.4,32.4,8.6,5.73,1.73,6.6,30.4
2015-08-29 01:43:00,0.0,1.90764,0.00048,389.745,0.126,1.4052,0.0106,139.997,45.000,31240.60379,1.93527,396.644,36.422,45.067,45.000,0.00,0.10,-272.73,-272.79,-17,507,-938,26.6,31.6,8.3,26.4,32.4,8.6,5.73,1.89,6.6,30.4
2015-08-29 01:44:00,0.0,1.90714,0.00039,389.828,0.200,1.4011,0.0178,139.999,45.000,31242.79503,1.93470,396.705,36.436,45.067,45.000,0.00,0.10,-272.73,-272.80,-17,507,-938,26.6,31.2,8.2,26.4,32.5,8.6,5.73,2.06,6.6,30.3
2015-08-29 01:45:00,0.0,1.90713,0.00042,390.165,0.088,1.3657,0.0090,139.997,45.000,31242.57839,1.93391,396.867,36.437,45.067,45.000,0.00,0.10,-272.73,-272.80,-18,507,-938,26.6,30.4,7.8,26.5,31.7,8.2,5.73,1.88,6.6,30.3
2015-08-29 01:46:00,0.0,1.90741,0.00043,390.021,0.083,1.3818,0.0106,139.998,45.000,31242.02899,1.93458,396.803,36.440,45.067,45.000,0.00,0.10,-272.73,-272.79,-18,507,-938,26.6,31.0,8.1,26.5,31.8,8.3,5.73,1.73,6.6,30.3